Regional Weather Roundup
Issued by NWS

Home | Current Version | Previous Version | Graphics & Text | Print | Product List | Glossary On
Versions: 1 2 3 4 5 6 7 8 9 10 11 12 13 14 15 16 17 18 19 20 21 22 23 24 25 26 27 28 29 30 31 32 33 34 35 36 37 38 39 40 41 42 43 44 45 46 47 48 49 50
000
ASUS43 KOAX 100210
RWRNE

WEATHER ROUNDUP FOR NEBRASKA
NATIONAL WEATHER SERVICE OMAHA NE
900 PM CDT WED JUL 09 2014

NOTES: SATELLITE DATA IS BEING USED TO AUGMENT CLOUD COVER ABOVE
       12000 FEET.
       "FAIR" INDICATES FEW OR NO CLOUDS BELOW 12,000 FEET WITH NO
       SIGNIFICANT WEATHER AND/OR OBSTRUCTIONS TO VISIBILITY.

  * THESE STATIONS DO NOT REPORT WEATHER SUCH AS RAIN...SNOW OR FOG.

NEZ001>004-019>022-054>056-100300-
NEBRASKA PANHANDLE

CITY           SKY/WX    TMP DP  RH WIND       PRES   REMARKS
SCOTTSBLUFF    CLEAR     84  61  45 E13       29.91R
ALLIANCE       CLEAR     77  61  57 E21       29.93R
CHADRON        CLEAR     78  62  57 E10       29.92R
KIMBALL        PTCLDY    77  58  52 CALM      29.97R
SIDNEY         PTCLDY    80  58  46 SE8       29.94F
$$

NEZ057>060-069>072-079>082-100300-
SOUTHWEST NEBRASKA

CITY           SKY/WX    TMP DP  RH WIND       PRES   REMARKS
NORTH PLATTE   PTCLDY    75  65  70 SE8       29.90F
IMPERIAL       MOCLDY    83  61  47 SE16      29.91R
LEXINGTON      MOCLDY    76  62  62 NE28G33   29.93R
MCCOOK         CLOUDY    83  63  50 SE12      29.92S
OGALLALA       CLEAR     82  60  46 SE9       29.89R
$$

NEZ005>010-023>029-035>040-094-100300-
NORTH CENTRAL NEBRASKA

CITY           SKY/WX    TMP DP  RH WIND       PRES   REMARKS
VALENTINE      CLEAR     68  60  75 E6        29.98S
AINSWORTH      MOCLDY    63  60  90 SE8       29.98F
BROKEN BOW     PTCLDY    65  59  81 E17G26    29.96R
O`NEILL        CLOUDY    64  59  83 CALM      29.99S
ORD            CLOUDY    65  61  87 SE14G31   29.95F
THEDFORD       PTCLDY    68  61  77 E17       29.96F
$$

NEZ041-046>049-061>064-073>077-083>087-100300-
SOUTH CENTRAL NEBRASKA

CITY           SKY/WX    TMP DP  RH WIND       PRES   REMARKS
GRAND ISLAND   TSTM      64  62  93 W12       30.10R FOG
AURORA         RAIN      67  64  92 NE8       30.07R
HASTINGS       CLOUDY    70  63  78 NE12      30.03R
HEBRON         TSTM      71  63  76 SE24      29.93F
HOLDREGE       MOCLDY    73  62  68 SE16      29.94F
KEARNEY *      MOCLDY    68  63  83 NE33G39   30.02R
YORK           RAIN      64  64 100 NE6       30.04R
$$

NEZ011>018-030>034-042>045-100300-
NORTHEAST NEBRASKA

CITY           SKY/WX    TMP DP  RH WIND       PRES   REMARKS
NORFOLK        CLOUDY    67  60  78 S8        29.99F
ALBION         CLOUDY    63  61  93 E10       29.95F
BLAIR          CLOUDY    69  64  83 S5        30.01S
FREMONT        CLOUDY    72  63  72 CALM      30.00S
TEKAMAH        MOCLDY    70  64  81 SW6       29.99F
WAYNE          PTCLDY    69  62  78 S3        29.99F
$$

NEZ050>053-065>068-078-088>093-100300-
SOUTHEAST NEBRASKA

CITY           SKY/WX    TMP DP  RH WIND       PRES   REMARKS
LINCOLN        CLOUDY    71  63  75 SE3       30.00F
OMAHA EPPLEY   CLOUDY    76  60  57 SW6       30.00S
BEATRICE       CLOUDY    64  62  91 S6        30.01F
FALLS CITY     LGT RAIN  74  64  71 S5        30.01S
NEBRASKA CITY  CLOUDY    72  66  81 S3        30.02R
PLATTSMOUTH    CLOUDY    70  61  73 S5        30.01S
$$

NEZ044-045-051>053-067-100300-
OMAHA AREA

CITY           SKY/WX    TMP DP  RH WIND       PRES   REMARKS
OMAHA EPPLEY   CLOUDY    76  60  57 SW6       30.00S
BLAIR          CLOUDY    69  64  83 S5        30.01S
FREMONT        CLOUDY    72  63  72 CALM      30.00S
MILLARD        CLOUDY    74  63  69 CALM      30.00F
OFFUTT AFB     CLOUDY    72  65  78 S3        30.00S
PLATTSMOUTH    CLOUDY    70  61  73 S5        30.01S
WAHOO          FAIR      69  66  88 S3        30.00S
$$


USA.gov is the U.S. government's official web portal to all federal, state and local government web resources and services.